THOR ABLESTAR DEB, 124

Orbit data source: Space-Track

THOR ABLESTAR DEB, 124 is space debris in LEO originally from a launch on Thu, 29 Jun 1961 UTC launched from the Air Force Eastern Test Range (AFETR). Debris objects in space refer to the collection of defunct objects orbiting the Earth. Examples of debris include non-operational satellites, rocket bodies, and fragments generated from explosions, collisions, or faulty payload assembly.

Loading next visibility...
Identifier
124, 1961-015J
Orbit
LEO
Country
Flag of USUS
Related business
Manufacturer
Unknown
Mission
Spacecraft
Bus & Motor
Unknown
Mass
Unknown
Launch date (UTC)
1961-06-29 (64 years ago)
Launch vehicle
Unknown
Launch site
Air Force Eastern Test Range (AFETR)
Object type
Payload
Rocket body
Debris
Shape & HBR
Unknown
Radar Cross Section
Small (<0.1 m²)

Expand to show TLE details & history
Last TLE update: 17 hours ago

TLE from 17 hours ago
0 THOR ABLESTAR DEB
1 00124U 61015J   25257.41076769  .00000589  00000-0  22927-3 0  9998
2 00124  66.5424 256.2711 0075358 318.1622  41.3732 14.35170356319346
Epoch: 2025-09-14T09:51Z
TLE epoch observation values (Epoch: 2025-09-14T09:51:30.328Z)
Latitude
0.00003°
Longitude
114.76458°
Altitude
736.326 km
Speed
7.508 km/s
True Right ascension
17h 05m 05s
True Declination
0° 00' 00"
Sunlit
Object was in daylight at epoch
Visualization orbit readout
Latitude
Unknown
Longitude
Unknown
Altitude
Unknown
Speed
Unknown
Apparent Right ascension
Unknown
Apparent Declination
Unknown
Sunlit
N/A
Visualization observer readout
Local Sidereal Time
19:49:48
Azimuth
Unknown
Elevation
Unknown
Doppler factor
Unknown
Orbital elements
Apogee altitude
826.778 km
Perigee altitude
719.001 km
Semi-major axis
7,151.027 km
Eccentricity
0.00754
Inclination
66.5424°
RAAN
256.2711°
Arg. of periapsis
318.1622°
True anomaly
41.94802°
Mean anomaly
41.3732°
Eccentric anomaly
41.6602°
Mean motion
3.58914 °/min
Orbital period
100.3 mins
BSTAR
0.00022927
Loading maneuver chart data...
Computing Atmospheric mass density...

Documentation

Showing up to 5 results
|